Weather History for Ord, NE

Change the Weather History Date:

Tuesday, May 27, 2014

  Actual Average Record
Temperature  
Mean Temperature 72 °F 63 °F  
Max Temperature 89 °F 75 °F 96 °F (2006)
Min Temperature 54 °F 51 °F 39 °F (2001)
Degree Days  
Heating Degree Days 0    
Month to date heating degree days 256  
Cooling Degree Days 7    
Month to date cooling degree days 36  
Year to date cooling degree days 37  
Growing Degree Days 21 (Base 50)    
Moisture  
Dew Point 55 °F    
Average Humidity 62    
Maximum Humidity 93    
Minimum Humidity 31    
Precipitation  
Precipitation 0.00 in 0.15 in 1.80 in (1945)
Month to date precipitation 0.49 3.22  
Year to date precipitation 2.20 8.07  
Sea Level Pressure  
Sea Level Pressure 29.90 in    
Wind  
Wind Speed 5 mph (SSE)    
Max Wind Speed 17 mph    
Max Gust Speed 22 mph    
Visibility 10 miles    
Events Thunderstorm    
T = Trace of Precipitation, MM = Missing Value Source: NWS Daily Summary

Daily Weather History Graph

Daily Weather History Graph

Search for Another Location

Airport:

Trip Planner

Search our weather history database for the weather conditions in past years. The results will help you decide how hot, cold, wet, or windy it might be!

Date:

Astronomy

May. 27, 2014 Rise Set
Actual Time 6:06 AM CDT 8:59 PM CDT
Civil Twilight 5:33 AM CDT 9:32 PM CDT
Nautical Twilight 4:52 AM CDT 10:14 PM CDT
Astronomical Twilight 4:04 AM CDT 11:02 PM CDT
Moon 5:31 AM CDT (5/27) 8:02 PM CDT (5/27)
Length of Visible Light 15h 58m
Length of Day
14h 53m
Waning Crescent, 1% of the Moon is Illuminated
May 27
Waning Crescent
May 28
New
Jun 5
First Quarter
Jun 12
Full
Jun 19
Last Quarter

Hourly Weather History & Observations

Time (CDT) Temp. Heat Index Dew Point Humidity Pressure Visibility Wind Dir Wind Speed Gust Speed Precip Events Conditions
12:53 AM 66.0 °F - 57.0 °F 73% 29.88 in 10.0 mi Calm Calm - N/A   Clear
1:53 AM 63.0 °F - 55.9 °F 78% 29.86 in 10.0 mi SSW 4.6 mph - N/A   Clear
2:53 AM 62.1 °F - 55.9 °F 80% 29.86 in 10.0 mi SSW 6.9 mph - N/A   Clear
3:53 AM 64.0 °F - 55.9 °F 75% 29.87 in 10.0 mi SSE 3.5 mph - N/A   Clear
4:53 AM 55.9 °F - 53.1 °F 90% 29.88 in 10.0 mi Calm Calm - N/A   Clear
5:53 AM 57.9 °F - 53.1 °F 84% 29.90 in 10.0 mi Calm Calm - N/A   Clear
6:53 AM 57.9 °F - 54.0 °F 87% 29.91 in 10.0 mi Calm Calm - N/A   Clear
7:53 AM 64.0 °F - 55.9 °F 75% 29.91 in 10.0 mi Calm Calm - N/A   Clear
8:53 AM 72.0 °F - 55.9 °F 57% 29.91 in 10.0 mi WNW 4.6 mph - N/A   Clear
9:53 AM 77.0 °F - 57.0 °F 50% 29.92 in 10.0 mi Calm Calm - N/A   Clear
10:53 AM 82.0 °F 81.6 °F 55.9 °F 41% 29.91 in 10.0 mi WNW 3.5 mph - N/A   Clear
11:53 AM 84.0 °F 82.9 °F 55.0 °F 37% 29.92 in 10.0 mi ESE 5.8 mph - N/A   Clear
12:53 PM 87.1 °F 85.7 °F 55.9 °F 35% 29.91 in 10.0 mi East 15.0 mph - N/A   Clear
1:53 PM 86.0 °F 84.5 °F 55.0 °F 35% 29.90 in 10.0 mi South 5.8 mph - N/A   Clear
2:53 PM 86.0 °F 84.2 °F 54.0 °F 33% 29.89 in 8.0 mi SSE 8.1 mph - N/A   Scattered Clouds
3:53 PM 87.8 °F 85.7 °F 53.6 °F 31% 29.91 in 10.0 mi ESE 5.8 mph - N/A   Mostly Cloudy
4:33 PM 87.1 °F 85.1 °F 54.0 °F 32% 29.91 in 10.0 mi East 9.2 mph - N/A Thunderstorm Scattered Clouds
4:48 PM 84.2 °F 83.0 °F 55.4 °F 37% 29.91 in 10.0 mi ESE 6.9 mph - N/A   Mostly Cloudy
4:53 PM 84.9 °F 83.6 °F 55.0 °F 36% 29.88 in 10.0 mi East 9.2 mph - N/A   Mostly Cloudy
5:31 PM 84.9 °F 83.2 °F 53.1 °F 33% 29.90 in 10.0 mi SE 6.9 mph - N/A Thunderstorm Clear
5:53 PM 82.9 °F 81.9 °F 54.0 °F 37% 29.89 in 10.0 mi WSW 6.9 mph - N/A Thunderstorm Clear
6:10 PM 84.0 °F 82.6 °F 54.0 °F 35% 29.91 in 10.0 mi SSE 5.8 mph - N/A   Clear
6:19 PM 82.9 °F 82.0 °F 55.0 °F 38% 29.91 in 10.0 mi Variable 4.6 mph - N/A Thunderstorm Partly Cloudy
6:53 PM 84.0 °F 83.0 °F 55.9 °F 38% 29.88 in 10.0 mi West 6.9 mph - N/A Thunderstorm Clear
7:05 PM 84.9 °F 83.7 °F 55.9 °F 37% 29.91 in 10.0 mi WSW 3.5 mph - N/A   Clear
7:12 PM 86.0 °F 84.5 °F 55.0 °F 35% 29.91 in 10.0 mi Calm Calm - N/A Thunderstorm Clear
7:27 PM 84.0 °F 83.0 °F 55.9 °F 38% 29.92 in 10.0 mi NE 5.8 mph - N/A   Clear
7:53 PM 82.0 °F 81.7 °F 57.0 °F 42% 29.89 in 10.0 mi ESE 9.2 mph - N/A   Clear
8:53 PM 75.0 °F - 57.9 °F 55% 29.90 in 10.0 mi Calm Calm - N/A   Clear
9:53 PM 66.9 °F - 55.0 °F 66% 29.93 in 10.0 mi NW 3.5 mph - N/A   Clear
10:53 PM 64.9 °F - 55.0 °F 70% 29.95 in 10.0 mi NE 3.5 mph - N/A   Clear
11:53 PM 64.9 °F - 55.0 °F 70% 29.95 in 10.0 mi WNW 3.5 mph - N/A   Clear